UAE21L KEWR-LGAV

Flight info

Callsign UAE21L
Flight time N/A
Altitude 33000
Route MERIT DCT HFD DCT PUT DCT WITCH DCT ALLEX N503B ALLRY/M084F350 DCT 51N050W 53N040W 54N030W 52N020W DCT LIMRI DCT XETBO DCT LULOX/N0480F350 DCT LIZAD/N0478F370 DCT JSY DCT ARSUK DCT RESMI UN491 POGZI DCT GELTA DCT LUVAL DCT SHARA DCT DEVDI DCT RIPUS DCT RESIA DCT IXONA DCT SAL DCT UVODI DCT AMUGO DCT KOFER DCT PINDO DCT KOGIS DCT SKP UM749 ROPOX
Aircraft B77W/H-SDE1E2E3FGHIJ2J3J4J5M1RWXY/LB1D1

Departure

Time 2026-04-22 03:40
Airport Newark Liberty International Airport (KEWR)

Arrival

Time N/A
Airport Athens Eleftherios Venizelos International Airport (LGAV)
Time Latitude Longitude Altitude Speed Heading
2026-04-22 03:26 40.69136 -74.17497 27 ft 0 kts 45°
2026-04-22 03:30 40.69135 -74.17498 27 ft 1 kts 45°
2026-04-22 03:30 40.69124 -74.17510 25 ft 3 kts 17°
2026-04-22 03:30 40.69110 -74.17510 24 ft 3 kts 318°
2026-04-22 03:30 40.69097 -74.17491 24 ft 3 kts 301°
2026-04-22 03:31 40.69087 -74.17468 25 ft 3 kts 301°
2026-04-22 03:31 40.69077 -74.17445 23 ft 3 kts 298°
2026-04-22 03:31 40.69068 -74.17422 25 ft 3 kts 295°
2026-04-22 03:31 40.69059 -74.17397 25 ft 3 kts 293°
2026-04-22 03:32 40.69054 -74.17381 25 ft 3 kts 294°
2026-04-22 03:32 40.69043 -74.17349 25 ft 3 kts 293°
2026-04-22 03:32 40.69035 -74.17325 24 ft 2 kts 295°
2026-04-22 03:32 40.69030 -74.17312 24 ft 2 kts 297°
2026-04-22 03:33 40.69024 -74.17298 24 ft 3 kts 314°
2026-04-22 03:33 40.69013 -74.17287 24 ft 3 kts 15°
2026-04-22 03:33 40.69003 -74.17292 25 ft 2 kts 26°
2026-04-22 03:33 40.68986 -74.17304 25 ft 3 kts 30°
2026-04-22 03:34 40.68972 -74.17315 26 ft 1 kts 26°
2026-04-22 03:34 40.68971 -74.17316 26 ft 0 kts 26°
2026-04-22 03:36 40.68984 -74.17306 25 ft 7 kts 27°
2026-04-22 03:36 40.69072 -74.17251 27 ft 21 kts 28°
2026-04-22 03:36 40.69234 -74.17144 27 ft 30 kts 31°
2026-04-22 03:36 40.69420 -74.17035 27 ft 30 kts 30°
2026-04-22 03:37 40.69602 -74.16910 27 ft 20 kts 25°
2026-04-22 03:37 40.69666 -74.16815 27 ft 14 kts 64°
2026-04-22 03:37 40.69724 -74.16715 29 ft 14 kts 32°
2026-04-22 03:37 40.69813 -74.16659 29 ft 14 kts 25°
2026-04-22 03:38 40.69901 -74.16604 27 ft 15 kts 27°
2026-04-22 03:38 40.70033 -74.16516 31 ft 11 kts 27°
2026-04-22 03:38 40.70052 -74.16496 30 ft 0 kts 51°
2026-04-22 03:39 40.70060 -74.16480 27 ft 3 kts 61°
2026-04-22 03:39 40.70058 -74.16393 30 ft 9 kts 123°
2026-04-22 03:40 40.69982 -74.16387 26 ft 17 kts 206°
2026-04-22 03:40 40.69670 -74.16586 26 ft 96 kts 205°
2026-04-22 03:40 40.68785 -74.17146 30 ft 188 kts 205°
2026-04-22 03:40 40.67440 -74.18013 694 ft 228 kts 206°
2026-04-22 03:41 40.65987 -74.18927 2259 ft 231 kts 200°
2026-04-22 03:41 40.64399 -74.19441 3206 ft 242 kts 196°
2026-04-22 03:41 40.62848 -74.20278 3996 ft 243 kts 210°
2026-04-22 03:41 40.61339 -74.21363 4725 ft 250 kts 212°
2026-04-22 03:42 40.59815 -74.22527 5510 ft 255 kts 214°
2026-04-22 03:42 40.58302 -74.23775 6284 ft 259 kts 218°
2026-04-22 03:42 40.56830 -74.25118 6998 ft 263 kts 221°